Voltar ao catálogo

CZ-6A DEB

AtivoPO
NORAD 61094·DEBRIS·🇨🇳 China

Lançado Aug 6, 2024 de Taiyuan Satellite Launch Center

Loading…

Próximas Passagens (próximas 24 horas)

TLE

AtualizadoSource: Space-Track

Época: Sep 13, 2026, 11:44 UTC

1 61094U 24140NL  26256.48905408  .00000198  00000-0  90504-4 0  9990
2 61094  89.0045 265.9631 0053616 260.3870  99.1259 14.17159460105635

Acompanhe CZ-6A DEB em tempo real com AllMySat

Download on the App Store